Location: Grange Rosano
(44.4500°N, 6.9667°E)
Time: 21:20:05
(UTC+00:00)

Cosmos 1656 Rocket - Pass Details

Date: 26 May 2022
Orbit: 796 x 845 km, 71.1° (Epoch: 01 July)

Event Time Altitude Azimuth Distance (km) Brightness Sun altitude
Rises 02:01:03 0° 337° (NNW) 3,312 7.2 -15.8°
Reaches altitude 10° 02:03:31 10° 342° (NNW) 2,377 6.5 -15.6°
Maximum altitude 02:08:50 56° 61° (ENE) 948 4.3 -15.0°
Drops below altitude 10° 02:14:09 10° 139° (SE) 2,369 5.9 -14.4°
Sets 02:16:36 0° 144° (SE) 3,300 6.6 -14.1°
